TimeCST,TemperatureF,Dew PointF,Humidity,Sea Level PressureIn,VisibilityMPH,Wind Direction,Wind SpeedMPH,Gust SpeedMPH,PrecipitationIn,Events,Conditions,WindDirDegrees,DateUTC
12:53 AM,62.1,55.0,78,29.75,10.0,South,9.2,-,N/A,,Scattered Clouds,180,2012-11-10 06:53:00
1:53 AM,62.1,55.0,78,29.74,10.0,South,13.8,-,N/A,,Scattered Clouds,180,2012-11-10 07:53:00
2:53 AM,62.1,54.0,75,29.72,10.0,South,13.8,-,N/A,,Mostly Cloudy,170,2012-11-10 08:53:00
3:53 AM,60.1,53.1,78,29.71,10.0,South,15.0,-,N/A,,Scattered Clouds,170,2012-11-10 09:53:00
4:53 AM,59.0,52.0,78,29.72,10.0,SSW,8.1,-,N/A,,Partly Cloudy,200,2012-11-10 10:53:00
5:53 AM,57.0,51.1,81,29.73,10.0,South,6.9,-,N/A,,Partly Cloudy,190,2012-11-10 11:53:00
6:53 AM,57.0,51.1,81,29.72,10.0,South,10.4,-,N/A,,Scattered Clouds,180,2012-11-10 12:53:00
7:53 AM,57.9,51.1,78,29.74,10.0,South,12.7,-,N/A,,Mostly Cloudy,190,2012-11-10 13:53:00
8:53 AM,61.0,52.0,72,29.73,10.0,South,19.6,-,N/A,,Mostly Cloudy,190,2012-11-10 14:53:00
9:53 AM,66.0,53.1,63,29.72,10.0,South,23.0,27.6,N/A,,Scattered Clouds,190,2012-11-10 15:53:00
10:53 AM,71.1,52.0,51,29.68,10.0,SSW,20.7,26.5,N/A,,Scattered Clouds,200,2012-11-10 16:53:00
11:53 AM,75.9,50.0,40,29.65,10.0,South,24.2,31.1,N/A,,Mostly Cloudy,190,2012-11-10 17:53:00
12:53 PM,79.0,46.0,31,29.61,8.0,SSW,29.9,39.1,N/A,,Mostly Cloudy,210,2012-11-10 18:53:00
1:53 PM,82.4,39.2,21,29.56,5.0,SSW,28.8,43.7,N/A,,Widespread Dust,210,2012-11-10 19:53:00
2:53 PM,82.0,35.1,18,29.53,3.0,SW,26.5,40.3,N/A,,Widespread Dust,220,2012-11-10 20:53:00
3:53 PM,79.0,42.1,27,29.53,7.0,SSW,26.5,35.7,N/A,,Mostly Cloudy,200,2012-11-10 21:53:00
4:53 PM,78.1,46.0,32,29.54,8.0,SSW,20.7,29.9,N/A,,Mostly Cloudy,200,2012-11-10 22:53:00
5:53 PM,77.0,45.0,32,29.55,8.0,South,19.6,31.1,N/A,,Mostly Cloudy,190,2012-11-10 23:53:00
6:53 PM,73.9,48.9,41,29.57,7.0,South,23.0,29.9,N/A,,Mostly Cloudy,180,2012-11-11 00:53:00
7:53 PM,72.0,48.9,44,29.58,10.0,South,19.6,29.9,N/A,,Mostly Cloudy,180,2012-11-11 01:53:00
8:25 PM,71.6,50.0,46,29.73,10.0,WSW,16.1,28.8,0.00,Rain,Light Rain,240,2012-11-11 02:25:00
8:32 PM,71.6,50.0,46,29.73,10.0,SW,21.9,31.1,0.00,Rain,Light Rain,220,2012-11-11 02:32:00
8:53 PM,70.0,52.0,53,29.62,10.0,SSW,20.7,-,0.00,,Scattered Clouds,200,2012-11-11 02:53:00
9:53 PM,68.0,51.8,56,29.76,10.0,SW,12.7,-,N/A,,Overcast,220,2012-11-11 03:53:00
10:31 PM,66.2,35.6,32,29.77,9.0,NW,11.5,18.4,N/A,,Overcast,310,2012-11-11 04:31:00
10:53 PM,63.0,34.0,34,29.67,10.0,NW,11.5,-,N/A,,Mostly Cloudy,320,2012-11-11 04:53:00
11:53 PM,59.0,33.1,38,29.67,10.0,NNW,15.0,-,N/A,,Mostly Cloudy,330,2012-11-11 05:53:00